Change the Weather History Date:

Thursday, May 29, 2014

  Actual Average Record
Temperature  
Mean Temperature 72 °F 66 °F  
Max Temperature 82 °F 81 °F 94 °F (1984)
Min Temperature 62 °F 50 °F 32 °F (1953)
Degree Days  
Heating Degree Days 0    
Month to date heating degree days 128  
Since 1 July heating degree days 3801  
Cooling Degree Days 7    
Month to date cooling degree days 49  
Year to date cooling degree days 49  
Growing Degree Days 22 (Base 50)    
Moisture  
Dew Point 35 °F    
Average Humidity 28    
Maximum Humidity 43    
Minimum Humidity 17    
Precipitation  
Precipitation T in 0.01 in 0.13 in (1971)
Month to date precipitation T 0.43  
Year to date precipitation 0.97 4.51  
Sea Level Pressure  
Sea Level Pressure 29.85 in    
Wind  
Wind Speed 10 mph (SSE)    
Max Wind Speed 25 mph    
Max Gust Speed 33 mph    
Visibility 10 miles    
Events Rain    
T = Trace of Precipitation, MM = Missing Value Source: NWS Daily Summary

Daily Weather History Graph

Daily Weather History Graph

Search for Another Location

Airport or City:

Trip Planner

Search our weather history database for the weather conditions in past years. The results will help you decide how hot, cold, wet, or windy it might be!

Date:

Astronomy

May. 29, 2014 Rise Set
Actual Time 5:18 AM MST 7:35 PM MST
Civil Twilight 4:50 AM MST 8:04 PM MST
Nautical Twilight 4:14 AM MST 8:40 PM MST
Astronomical Twilight 3:36 AM MST 9:18 PM MST
Moon 6:13 AM MST (5/29) 8:31 PM MST (5/29)
Length of Visible Light 15h 14m
Length of Day
14h 16m
New Moon, 1% of the Moon is Illuminated
May 29
New Moon
Jun 5
First Quarter
Jun 12
Full
Jun 19
Last Quarter
Jun 27
New

Hourly Weather History & Observations

Time (MST) Temp. Dew Point Humidity Pressure Visibility Wind Dir Wind Speed Gust Speed Precip Events Conditions
1:53 AM 70.0 °F 24.1 °F 18% 29.76 in 10.0 mi South 6.9 mph - N/A   Clear
2:53 AM 70.0 °F 23.0 °F 17% 29.75 in 10.0 mi South 6.9 mph - N/A   Clear
3:53 AM 66.9 °F 25.0 °F 21% 29.78 in 10.0 mi SSE 6.9 mph - N/A   Clear
4:53 AM 64.9 °F 28.0 °F 25% 29.80 in 10.0 mi SSE 5.8 mph - N/A   Clear
5:53 AM 66.0 °F 27.0 °F 23% 29.82 in 10.0 mi SSE 4.6 mph - N/A   Clear
6:53 AM 64.9 °F 32.0 °F 29% 29.84 in 10.0 mi SSE 6.9 mph - N/A   Mostly Cloudy
7:53 AM 69.1 °F 33.1 °F 26% 29.85 in 10.0 mi North - - N/A   Overcast
8:53 AM 71.1 °F 33.1 °F 25% 29.89 in 10.0 mi ESE 10.4 mph - N/A   Overcast
9:53 AM 70.0 °F 39.0 °F 32% 29.91 in 10.0 mi SE 16.1 mph 23.0 mph N/A   Mostly Cloudy
10:53 AM 69.1 °F 42.1 °F 38% 29.95 in 10.0 mi SE 15.0 mph - 0.00 in Rain Light Rain
11:53 AM 73.9 °F 39.0 °F 28% 29.93 in 10.0 mi ESE 11.5 mph 17.3 mph 0.00 in   Scattered Clouds
12:53 PM 77.0 °F 41.0 °F 28% 29.89 in 10.0 mi ESE 15.0 mph 21.9 mph N/A   Scattered Clouds
3:53 PM 79.0 °F 37.9 °F 23% 29.84 in 10.0 mi SSE 12.7 mph 20.7 mph N/A   Mostly Cloudy
4:53 PM 80.1 °F 37.9 °F 22% 29.83 in 10.0 mi SSE 11.5 mph 21.9 mph N/A   Mostly Cloudy
5:53 PM 79.0 °F 39.0 °F 24% 29.82 in 10.0 mi SE 15.0 mph 21.9 mph N/A   Scattered Clouds
6:53 PM 77.0 °F 39.0 °F 25% 29.84 in 10.0 mi SE 13.8 mph - N/A   Scattered Clouds
7:53 PM 73.9 °F 39.0 °F 28% 29.85 in 10.0 mi SE 11.5 mph - N/A   Clear
8:53 PM 69.1 °F 39.9 °F 35% 29.87 in 10.0 mi South 5.8 mph - N/A   Clear
9:53 PM 69.1 °F 39.9 °F 35% 29.89 in 10.0 mi South 6.9 mph - N/A   Clear
10:53 PM 64.9 °F 41.0 °F 42% 29.90 in 10.0 mi South 4.6 mph - N/A   Clear
11:53 PM 62.1 °F 41.0 °F 46% 29.89 in 10.0 mi SSW 4.6 mph - N/A   Clear